Find Iridium Next SV173

NORAD ID: 43925 Int'l Des: 2019-002 Owner: IRIDS Country: US Constellation: Iridium NEXT operational
LEOCIRCULARPOLAR

当前视图

正在加载3D地球...

关于 Iridium Next SV173

正在加载描述...

即将过境

Passes for default location (London). Set your location on the main map for personalized predictions.

高度历史

Loading altitude history...

两行轨道根数

1 43925U 19002D 26146.13984909 .00000049 00000-0 10492-4 0 9990
2 43925 86.3981 2.7816 0002265 86.0838 274.0617 14.34217855385791
Epoch: May 26, 2026 • Age: 13 hours

当前状态

高度 805.2 km
速度 7.45 km/s
星下点 -69.05°S, 64.19°E
发射日期 Jan 11, 2019
运行时间 7.3 years
类型 communications

技术详情

分类 Payload
质量 860.00 kg
干质量 700.00 kg
总质量 860.00 kg
长度 3.10 m
直径 1.50 m
跨度 9.40 m
形状 Half Hex Prism+2 pan
制造商 NGISGA
平台类型 EliteBus
阶段状态 In Orbit
所有者/国家 IRIDS/US

Most Searched